Powrót do katalogu

CZ-3A DEB

LostHEO
NORAD 40154·DEBRIS·🇨🇳 China

Wystrzelony Feb 2, 2007 z Xichang Satellite Launch Center

Loading…

Następne Przeloty (najbliższe 24 godziny)

TLE

NieaktualneSource: Space-Track

Epoka: Jan 16, 2024, 05:27 UTC

1 40154U 07003AN  24016.22745359  .00000809  00000-0  76399-2 0  9997
2 40154  25.6326 267.3396 7678174 233.4326 335.4617  1.71075227 98557

Śledź CZ-3A DEB w czasie rzeczywistym z AllMySat

Download on the App Store